TimeCST,TemperatureF,Dew PointF,Humidity,Sea Level PressureIn,VisibilityMPH,Wind Direction,Wind SpeedMPH,Gust SpeedMPH,PrecipitationIn,Events,Conditions,WindDirDegrees,DateUTC
12:15 AM,-5.8,-10.5,80,30.21,10.0,NW,4.6,-,N/A,,Clear,310,2013-12-31 06:15:00
12:35 AM,-4.4,-9.4,79,30.21,7.0,NW,3.5,-,N/A,,Clear,310,2013-12-31 06:35:00
12:55 AM,-4.9,-9.9,79,30.21,10.0,Calm,Calm,-,N/A,,Clear,0,2013-12-31 06:55:00
1:15 AM,-4.5,-9.4,80,30.21,10.0,Calm,Calm,-,N/A,,Clear,0,2013-12-31 07:15:00
1:35 AM,-4.4,-9.4,79,30.20,7.0,Calm,Calm,-,N/A,,Clear,0,2013-12-31 07:35:00
1:55 AM,-5.8,-11.2,77,30.21,10.0,Calm,Calm,-,N/A,,Clear,0,2013-12-31 07:55:00
2:15 AM,-8.0,-13.5,77,30.22,5.0,Calm,Calm,-,N/A,,Haze,0,2013-12-31 08:15:00
2:35 AM,-8.1,-13.5,77,30.22,7.0,Calm,Calm,-,N/A,,Clear,0,2013-12-31 08:35:00
2:55 AM,-10.7,-16.4,76,30.23,10.0,Calm,Calm,-,N/A,,Clear,0,2013-12-31 08:55:00
3:15 AM,-9.6,-15.3,76,30.22,10.0,Calm,Calm,-,N/A,,Clear,0,2013-12-31 09:15:00
3:35 AM,-9.8,-15.7,75,30.22,10.0,Calm,Calm,-,N/A,,Clear,0,2013-12-31 09:35:00
3:55 AM,-10.7,-16.6,75,30.23,10.0,Calm,Calm,-,N/A,,Clear,0,2013-12-31 09:55:00
4:15 AM,-13.2,-19.3,74,30.23,10.0,NNW,3.5,-,N/A,,Clear,340,2013-12-31 10:15:00
4:35 AM,-13.2,-19.3,74,30.24,10.0,WNW,3.5,-,N/A,,Clear,290,2013-12-31 10:35:00
4:55 AM,-13.2,-19.3,74,30.24,10.0,Calm,Calm,-,N/A,,Clear,0,2013-12-31 10:55:00
5:15 AM,-10.7,-16.4,76,30.23,10.0,North,4.6,-,N/A,,Scattered Clouds,350,2013-12-31 11:15:00
5:35 AM,-13.2,-19.3,74,30.25,10.0,Calm,Calm,-,N/A,,Mostly Cloudy,0,2013-12-31 11:35:00
5:55 AM,-10.7,-16.1,77,30.25,10.0,Calm,Calm,-,N/A,,Overcast,0,2013-12-31 11:55:00
6:15 AM,-8.1,-13.5,77,30.26,10.0,Calm,Calm,-,N/A,,Scattered Clouds,0,2013-12-31 12:15:00
6:35 AM,-8.1,-14.1,75,30.28,10.0,Calm,Calm,-,N/A,,Clear,0,2013-12-31 12:35:00
6:55 AM,-8.1,-13.5,77,30.29,10.0,SW,3.5,-,N/A,,Clear,230,2013-12-31 12:55:00
7:15 AM,-5.8,-11.4,77,30.29,7.0,Calm,Calm,-,N/A,,Clear,0,2013-12-31 13:15:00
7:35 AM,-3.1,-7.8,80,30.29,7.0,Calm,Calm,-,N/A,,Scattered Clouds,0,2013-12-31 13:35:00
7:55 AM,-0.6,-5.3,81,30.30,10.0,Calm,Calm,-,N/A,,Scattered Clouds,0,2013-12-31 13:55:00
8:15 AM,0.5,-4.0,81,30.31,7.0,Calm,Calm,-,N/A,,Clear,0,2013-12-31 14:15:00
8:35 AM,1.9,-2.7,81,30.30,10.0,Calm,Calm,-,N/A,,Clear,0,2013-12-31 14:35:00
8:55 AM,2.5,-2.0,81,30.31,10.0,WNW,3.5,-,N/A,,Clear,290,2013-12-31 14:55:00
9:15 AM,3.2,-1.3,82,30.30,10.0,Calm,Calm,-,N/A,,Clear,0,2013-12-31 15:15:00
9:35 AM,5.0,0.7,82,30.32,10.0,Calm,Calm,-,N/A,,Clear,0,2013-12-31 15:35:00
9:55 AM,5.9,1.6,82,30.32,7.0,Calm,Calm,-,N/A,,Scattered Clouds,0,2013-12-31 15:55:00
10:15 AM,6.8,2.5,82,30.32,2.5,Calm,Calm,-,N/A,Snow,Light Snow,0,2013-12-31 16:15:00
10:35 AM,7.0,2.8,83,30.31,2.5,Calm,Calm,-,N/A,Snow,Light Snow,0,2013-12-31 16:35:00
10:55 AM,9.5,5.5,84,30.31,5.0,Calm,Calm,-,N/A,,Mostly Cloudy,0,2013-12-31 16:55:00
11:15 AM,6.8,2.7,83,30.30,3.0,Calm,Calm,-,N/A,Snow,Light Snow,0,2013-12-31 17:15:00
11:35 AM,6.8,2.7,83,30.29,4.0,Calm,Calm,-,N/A,Snow,Light Snow,0,2013-12-31 17:35:00
11:55 AM,6.8,2.5,82,30.28,2.5,Calm,Calm,-,N/A,Snow,Light Snow,0,2013-12-31 17:55:00
12:15 PM,6.8,2.5,82,30.27,1.8,East,3.5,-,N/A,Snow,Light Snow,90,2013-12-31 18:15:00
12:35 PM,6.8,2.3,82,30.26,1.2,ENE,4.6,-,N/A,Snow,Light Snow,60,2013-12-31 18:35:00
12:55 PM,6.8,2.1,81,30.25,2.5,ENE,5.8,-,N/A,Snow,Light Snow,70,2013-12-31 18:55:00
1:15 PM,6.8,1.9,80,30.25,4.0,ENE,5.8,-,N/A,Snow,Light Snow,60,2013-12-31 19:15:00
1:35 PM,6.8,1.2,78,30.25,7.0,NE,6.9,-,N/A,,Mostly Cloudy,50,2013-12-31 19:35:00
1:55 PM,6.8,1.0,77,30.24,10.0,NE,8.1,-,N/A,,Clear,40,2013-12-31 19:55:00
2:15 PM,6.8,0.5,75,30.25,10.0,NE,6.9,-,N/A,,Clear,40,2013-12-31 20:15:00
2:35 PM,7.5,0.7,74,30.23,10.0,NE,8.1,-,N/A,,Clear,50,2013-12-31 20:35:00
2:55 PM,9.5,3.0,75,30.23,10.0,ENE,10.4,-,N/A,,Scattered Clouds,70,2013-12-31 20:55:00
3:15 PM,7.2,0.9,75,30.23,10.0,ENE,8.1,-,N/A,,Mostly Cloudy,60,2013-12-31 21:15:00
3:35 PM,7.7,1.0,74,30.23,10.0,ENE,11.5,-,N/A,,Overcast,70,2013-12-31 21:35:00
3:55 PM,7.0,0.5,75,30.25,10.0,ENE,9.2,-,N/A,,Overcast,60,2013-12-31 21:55:00
4:15 PM,8.6,2.3,76,30.25,10.0,ENE,6.9,-,N/A,,Overcast,60,2013-12-31 22:15:00
4:35 PM,9.5,3.0,75,30.25,10.0,ENE,9.2,-,N/A,,Overcast,60,2013-12-31 22:35:00
4:55 PM,9.5,3.0,75,30.26,10.0,ENE,8.1,-,N/A,,Overcast,60,2013-12-31 22:55:00
5:15 PM,9.5,3.2,76,30.27,10.0,NE,9.2,-,N/A,,Overcast,40,2013-12-31 23:15:00
5:35 PM,9.5,3.2,76,30.26,10.0,ENE,9.2,-,N/A,,Overcast,70,2013-12-31 23:35:00
5:55 PM,9.5,3.2,76,30.27,10.0,ENE,8.1,-,N/A,,Overcast,60,2013-12-31 23:55:00
6:15 PM,9.5,3.2,76,30.28,10.0,ENE,8.1,-,N/A,,Overcast,60,2014-01-01 00:15:00
6:35 PM,9.5,3.2,76,30.27,10.0,ENE,8.1,-,N/A,,Overcast,60,2014-01-01 00:35:00
6:55 PM,9.5,3.2,76,30.27,10.0,ENE,9.2,-,N/A,,Overcast,70,2014-01-01 00:55:00
7:15 PM,9.5,3.2,76,30.27,10.0,ENE,9.2,-,N/A,,Overcast,60,2014-01-01 01:15:00
7:35 PM,9.5,3.2,76,30.27,10.0,ENE,9.2,-,N/A,,Overcast,60,2014-01-01 01:35:00
7:55 PM,9.5,3.2,76,30.28,10.0,ENE,9.2,-,N/A,,Overcast,60,2014-01-01 01:55:00
8:15 PM,9.5,3.4,76,30.27,10.0,ENE,9.2,-,N/A,,Overcast,60,2014-01-01 02:15:00
8:35 PM,9.5,3.6,77,30.27,10.0,NE,10.4,-,N/A,,Overcast,50,2014-01-01 02:35:00
8:55 PM,9.5,3.2,76,30.27,10.0,NE,10.4,-,N/A,,Overcast,50,2014-01-01 02:55:00
9:15 PM,9.5,3.2,76,30.27,10.0,NE,12.7,-,N/A,,Overcast,50,2014-01-01 03:15:00
9:35 PM,9.5,3.0,75,30.27,10.0,ENE,12.7,-,N/A,,Overcast,60,2014-01-01 03:35:00
9:55 PM,9.5,3.2,76,30.26,10.0,NE,11.5,-,N/A,,Overcast,50,2014-01-01 03:55:00
10:15 PM,9.5,3.2,76,30.27,10.0,NE,10.4,-,N/A,,Overcast,50,2014-01-01 04:15:00
10:35 PM,9.5,3.2,76,30.27,10.0,ENE,10.4,-,N/A,,Overcast,60,2014-01-01 04:35:00
10:55 PM,9.5,3.2,76,30.26,10.0,NE,11.5,16.1,N/A,,Overcast,50,2014-01-01 04:55:00
11:15 PM,9.5,3.2,76,30.26,10.0,ENE,12.7,-,N/A,,Overcast,60,2014-01-01 05:15:00
11:35 PM,9.5,3.2,76,30.26,10.0,NE,12.7,-,N/A,,Overcast,50,2014-01-01 05:35:00
11:55 PM,9.5,3.2,76,30.25,10.0,NE,10.4,-,N/A,,Overcast,50,2014-01-01 05:55:00